Hourly Weather Aliaga

Today, 24 November, Tuesday

Time Temperature Precipitation Wind Pressure Humidity
00:00 +4°C° 0 mm 1 mps 660 mmHg 64%
01:00 +4°C° 0 mm 1 mps 660 mmHg 65%
02:00 +4°C° 0 mm 1 mps 660 mmHg 66%
03:00 +4°C° 0 mm 1 mps 659 mmHg 68%
04:00 +4°C° 0 mm 1 mps 659 mmHg 67%
05:00 +4°C° 0 mm 1 mps 659 mmHg 67%
06:00 +3°C° 0 mm 1 mps 659 mmHg 67%
07:00 +5°C° 0 mm 1 mps 660 mmHg 60%
08:00 +7°C° 0 mm 1 mps 661 mmHg 53%
09:00 +9°C° 0 mm 1 mps 661 mmHg 45%
10:00 +10°C° 0 mm 1 mps 661 mmHg 41%
11:00 +10°C° 0 mm 2 mps 661 mmHg 36%
12:00 +13°C° 0 mm 2 mps 661 mmHg 32%
13:00 +12°C° 0 mm 2 mps 660 mmHg 34%
14:00 +12°C° 0 mm 2 mps 659 mmHg 36%
15:00 +12°C° 0 mm 2 mps 659 mmHg 39%
16:00 +9°C° 0 mm 2 mps 658 mmHg 43%
17:00 +7°C° 0 mm 2 mps 658 mmHg 47%
18:00 +5°C° 0 mm 2 mps 657 mmHg 51%
19:00 +5°C° 0 mm 2 mps 657 mmHg 50%
20:00 +5°C° 0 mm 2 mps 657 mmHg 48%
21:00 +5°C° 0 mm 2 mps 657 mmHg 46%
22:00 +4°C° 0 mm 2 mps 657 mmHg 48%
23:00 +4°C° 0 mm 2 mps 657 mmHg 50%

Tomorrow, 25 November, Wednesday

Time Temperature Precipitation Wind Pressure Humidity
00:00 +3°C° 0 mm 2 mps 656 mmHg 52%
01:00 +3°C° 0 mm 2 mps 656 mmHg 57%
02:00 +3°C° 0 mm 2 mps 656 mmHg 62%
03:00 +3°C° 0 mm 2 mps 655 mmHg 67%
04:00 +2°C° 0 mm 2 mps 655 mmHg 71%
05:00 +2°C° 0 mm 2 mps 655 mmHg 76%
06:00 +2°C° 0 mm 2 mps 655 mmHg 80%
07:00 +3°C° 0 mm 2 mps 655 mmHg 77%
08:00 +4°C° 0 mm 3 mps 656 mmHg 74%
09:00 +5°C° 0 mm 3 mps 656 mmHg 71%
10:00 +7°C° 0 mm 3 mps 656 mmHg 67%
11:00 +8°C° 0 mm 3 mps 656 mmHg 62%
12:00 +9°C° 0 mm 3 mps 656 mmHg 58%
13:00 +9°C° 0 mm 3 mps 656 mmHg 58%
14:00 +9°C° 0 mm 3 mps 655 mmHg 57%
15:00 +9°C° 0 mm 3 mps 655 mmHg 57%
16:00 +7°C° 0 mm 2 mps 654 mmHg 65%
17:00 +6°C° 0 mm 2 mps 654 mmHg 74%
18:00 +4°C° 0 mm 2 mps 654 mmHg 82%
19:00 +4°C° 0 mm 2 mps 654 mmHg 84%
20:00 +3°C° 0 mm 2 mps 654 mmHg 85%
21:00 +3°C° 0 mm 2 mps 654 mmHg 86%
22:00 +3°C° 0 mm 2 mps 654 mmHg 87%
23:00 +2°C° 0 mm 3 mps 654 mmHg 88%

Day after tomorrow, 26 November, Thursday

Time Temperature Precipitation Wind Pressure Humidity
00:00 +2°C° 0 mm 3 mps 654 mmHg 89%
01:00 +2°C° 0 mm 3 mps 654 mmHg 90%
02:00 +2°C° 0 mm 3 mps 654 mmHg 91%
03:00 +2°C° 0 mm 3 mps 654 mmHg 92%
04:00 +2°C° 0 mm 3 mps 654 mmHg 92%
05:00 +2°C° 0 mm 3 mps 654 mmHg 92%
06:00 +3°C° 0 mm 3 mps 654 mmHg 92%
07:00 +4°C° 0 mm 3 mps 654 mmHg 90%
08:00 +5°C° 0 mm 4 mps 654 mmHg 87%
09:00 +5°C° 0 mm 4 mps 655 mmHg 85%
10:00 +6°C° 0 mm 5 mps 655 mmHg 80%
11:00 +7°C° 0 mm 6 mps 655 mmHg 74%
12:00 +8°C° 0 mm 7 mps 654 mmHg 69%
13:00 +8°C° 0.2 mm 7 mps 654 mmHg 73%
14:00 +7°C° 0.2 mm 6 mps 654 mmHg 77%
15:00 +7°C° 0.2 mm 6 mps 653 mmHg 81%
16:00 +5°C° 0.1 mm 6 mps 653 mmHg 84%
17:00 +6°C° 0.1 mm 5 mps 653 mmHg 88%
18:00 +5°C° 0.1 mm 5 mps 653 mmHg 92%
19:00 +4°C° 0.1 mm 6 mps 653 mmHg 92%
20:00 +4°C° 0.1 mm 6 mps 653 mmHg 93%
21:00 +4°C° 0.1 mm 6 mps 653 mmHg 93%
22:00 +4°C° 0.2 mm 6 mps 653 mmHg 94%
23:00 +4°C° 0.2 mm 7 mps 653 mmHg 94%

27 November, Friday

Time Temperature Precipitation Wind Pressure Humidity
00:00 +4°C° 0.2 mm 7 mps 653 mmHg 95%
01:00 +4°C° 0.2 mm 7 mps 653 mmHg 94%
02:00 +4°C° 0.2 mm 6 mps 652 mmHg 94%
03:00 +4°C° 0.2 mm 6 mps 652 mmHg 93%
04:00 +4°C° 0.2 mm 6 mps 652 mmHg 94%
05:00 +4°C° 0.2 mm 6 mps 651 mmHg 94%
06:00 +4°C° 0.2 mm 6 mps 651 mmHg 94%
07:00 +4°C° 0 mm 6 mps 651 mmHg 93%
08:00 +4°C° 0 mm 6 mps 651 mmHg 91%
09:00 +4°C° 0 mm 6 mps 651 mmHg 89%
10:00 +4°C° 0.1 mm 6 mps 651 mmHg 90%
11:00 +4°C° 0.1 mm 6 mps 650 mmHg 90%
12:00 +4°C° 0.1 mm 7 mps 650 mmHg 91%
13:00 +4°C° 0.3 mm 7 mps 650 mmHg 91%
14:00 +4°C° 0.3 mm 8 mps 649 mmHg 91%
15:00 +4°C° 0.3 mm 8 mps 649 mmHg 91%
16:00 +4°C° 0.7 mm 8 mps 649 mmHg 92%
17:00 +4°C° 0.7 mm 7 mps 649 mmHg 93%
18:00 +3°C° 0.7 mm 6 mps 649 mmHg 93%
19:00 +3°C° 0.7 mm 6 mps 648 mmHg 94%
20:00 +3°C° 0.7 mm 6 mps 648 mmHg 94%
21:00 +3°C° 0.7 mm 6 mps 648 mmHg 95%
22:00 +3°C° 0.6 mm 6 mps 648 mmHg 95%
23:00 +3°C° 0.6 mm 6 mps 648 mmHg 95%

28 November, Saturday

Time Temperature Precipitation Wind Pressure Humidity
00:00 +3°C° 0.6 mm 6 mps 648 mmHg 95%
01:00 +3°C° 0.3 mm 6 mps 647 mmHg 95%
02:00 +3°C° 0.3 mm 5 mps 647 mmHg 95%
03:00 +3°C° 0.3 mm 5 mps 647 mmHg 95%
04:00 +3°C° 0.2 mm 5 mps 647 mmHg 95%
05:00 +3°C° 0.2 mm 5 mps 647 mmHg 95%
06:00 +2°C° 0.2 mm 5 mps 647 mmHg 95%
07:00 +3°C° 0.3 mm 5 mps 647 mmHg 94%
08:00 +3°C° 0.3 mm 5 mps 647 mmHg 93%
09:00 +3°C° 0.3 mm 5 mps 647 mmHg 93%
10:00 +5°C° 0.1 mm 4 mps 647 mmHg 88%
11:00 +5°C° 0.1 mm 4 mps 647 mmHg 84%
12:00 +7°C° 0.1 mm 3 mps 647 mmHg 79%
13:00 +7°C° 0 mm 3 mps 647 mmHg 77%
14:00 +7°C° 0 mm 2 mps 647 mmHg 75%
15:00 +7°C° 0 mm 2 mps 647 mmHg 73%
16:00 +7°C° 0 mm 1 mps 648 mmHg 77%
17:00 +6°C° 0 mm 1 mps 648 mmHg 82%
18:00 +5°C° 0 mm 1 mps 648 mmHg 86%
19:00 +5°C° 0 mm 1 mps 648 mmHg 86%
20:00 +4°C° 0 mm 1 mps 648 mmHg 85%
21:00 +4°C° 0 mm 1 mps 649 mmHg 84%
22:00 +4°C° 0 mm 1 mps 649 mmHg 83%
23:00 +4°C° 0 mm 1 mps 650 mmHg 82%

29 November, Sunday

Time Temperature Precipitation Wind Pressure Humidity
00:00 +5°C° 0 mm 1 mps 650 mmHg 81%
01:00 +4°C° 0 mm 1 mps 650 mmHg 82%
02:00 +4°C° 0 mm 1 mps 650 mmHg 82%
03:00 +4°C° 0 mm 1 mps 650 mmHg 83%
04:00 +4°C° 0 mm 1 mps 650 mmHg 83%
05:00 +3°C° 0 mm 1 mps 650 mmHg 84%
06:00 +3°C° 0 mm 1 mps 650 mmHg 85%
07:00 +5°C° 0 mm 1 mps 651 mmHg 79%
08:00 +6°C° 0 mm 1 mps 651 mmHg 74%
09:00 +8°C° 0 mm 1 mps 652 mmHg 69%
10:00 +9°C° 0 mm 1 mps 653 mmHg 65%
11:00 +9°C° 0 mm 2 mps 653 mmHg 60%
12:00 +10°C° 0 mm 2 mps 653 mmHg 55%
13:00 +10°C° 0 mm 2 mps 653 mmHg 57%
14:00 +10°C° 0 mm 2 mps 653 mmHg 58%
15:00 +9°C° 0 mm 3 mps 653 mmHg 60%
16:00 +8°C° 0 mm 2 mps 652 mmHg 69%
17:00 +6°C° 0 mm 2 mps 652 mmHg 78%
18:00 +5°C° 0 mm 1 mps 652 mmHg 88%
19:00 +5°C° 0 mm 1 mps 652 mmHg 88%
20:00 +5°C° 0 mm 1 mps 652 mmHg 88%
21:00 +4°C° 0 mm 2 mps 653 mmHg 88%
22:00 +4°C° 0 mm 2 mps 653 mmHg 87%
23:00 +4°C° 0 mm 2 mps 653 mmHg 86%
Show more